Weather History for Port Angeles, WA

Change the Weather History Date:

Tuesday, July 30, 2013

  Actual Average Record
Temperature  
Mean Temperature 58 °F -  
Max Temperature 66 °F 70 °F 85 °F (1968)
Min Temperature 51 °F 51 °F 42 °F (1986)
Degree Days  
Heating Degree Days 6    
Growing Degree Days 8 (Base 50)    
Moisture  
Dew Point 52 °F    
Average Humidity 89    
Maximum Humidity 100    
Minimum Humidity 65    
Precipitation  
Precipitation 0.00 in - - ()
Sea Level Pressure  
Sea Level Pressure 30.09 in    
Wind  
Wind Speed 8 mph (WNW)    
Max Wind Speed 13 mph    
Max Gust Speed -    
Visibility 6 miles    
Events Fog    
Averages and records for this station are not official NWS values.
T = Trace of Precipitation, MM = Missing Value Source: NWS Daily Summary

Daily Weather History Graph

Daily Weather History Graph

Search for Another Location

Airport:

Trip Planner

Search our weather history database for the weather conditions in past years. The results will help you decide how hot, cold, wet, or windy it might be!

Date:

Astronomy

Jul. 30, 2013 Rise Set
Actual Time 5:47 AM PDT 8:52 PM PDT
Civil Twilight 5:10 AM PDT 9:28 PM PDT
Nautical Twilight 4:22 AM PDT 10:16 PM PDT
Astronomical Twilight 3:23 AM PDT 11:15 PM PDT
Moon 12:12 AM PDT (7/30) 3:16 PM PDT (7/30)
Length of Visible Light 16h 18m
Length of Day
15h 04m
Last Quarter, 40% of the Moon is Illuminated
Jul 30
Last Quarter
Aug 6
New
Aug 14
First Quarter
Aug 20
Full
Aug 28
Last Quarter

Hourly Weather History & Observations

Time (PDT) Temp. Dew Point Humidity Pressure Visibility Wind Dir Wind Speed Gust Speed Precip Events Conditions
12:11 AM 52.0 °F 51.1 °F 97% 30.03 in 1.0 mi WNW 8.1 mph - N/A   Mist
12:28 AM 52.0 °F 51.1 °F 97% 30.03 in 1.2 mi West 8.1 mph - N/A   Overcast
12:37 AM 52.0 °F 51.1 °F 97% 30.03 in 0.8 mi WNW 10.4 mph - N/A   Mist
12:53 AM 52.0 °F 51.1 °F 97% 30.03 in 0.8 mi WNW 6.9 mph - N/A   Mist
1:25 AM 52.0 °F 51.1 °F 97% 30.03 in 1.0 mi WNW 8.1 mph - N/A   Mist
1:40 AM 52.0 °F 51.1 °F 97% 30.03 in 0.8 mi WNW 9.2 mph - N/A   Mist
1:53 AM 52.0 °F 51.1 °F 97% 30.03 in 0.8 mi WNW 8.1 mph - N/A   Mist
2:10 AM 52.0 °F 51.1 °F 97% 30.03 in 1.0 mi WNW 9.2 mph - N/A   Mist
2:50 AM 51.8 °F 51.8 °F 100% 30.04 in 0.8 mi West 4.6 mph - N/A   Mist
2:53 AM 52.0 °F 51.1 °F 97% 30.05 in 0.8 mi West 5.8 mph - N/A   Mist
3:53 AM 52.0 °F 51.1 °F 97% 30.06 in 0.8 mi West 6.9 mph - N/A   Mist
4:53 AM 52.0 °F 51.1 °F 97% 30.07 in 0.8 mi West 10.4 mph - N/A   Mist
5:53 AM 52.0 °F 52.0 °F 100% 30.09 in 1.0 mi West 6.9 mph - N/A   Mist
6:04 AM 53.1 °F 52.0 °F 96% 30.09 in 0.5 mi West 5.8 mph - N/A Fog Fog
6:31 AM 53.1 °F 52.0 °F 96% 30.09 in 1.2 mi West 8.1 mph - N/A   Overcast
6:53 AM 53.1 °F 52.0 °F 96% 30.10 in 2.5 mi West 6.9 mph - N/A   Overcast
7:15 AM 53.1 °F 52.0 °F 96% 30.10 in 4.0 mi WNW 6.9 mph - N/A   Overcast
7:53 AM 53.1 °F 52.0 °F 96% 30.12 in 9.0 mi WNW 3.5 mph - N/A   Overcast
8:53 AM 54.0 °F 52.0 °F 93% 30.14 in 10.0 mi Calm Calm - N/A   Overcast
9:53 AM 54.0 °F 52.0 °F 93% 30.14 in 10.0 mi NW 5.8 mph - N/A   Overcast
10:53 AM 55.0 °F 52.0 °F 89% 30.14 in 10.0 mi Variable 4.6 mph - N/A   Overcast
11:24 AM 57.0 °F 52.0 °F 83% 30.14 in 10.0 mi North 5.8 mph - N/A   Overcast
11:53 AM 57.9 °F 52.0 °F 81% 30.14 in 10.0 mi Variable 4.6 mph - N/A   Overcast
12:43 PM 59.0 °F 53.1 °F 81% 30.14 in 10.0 mi North 6.9 mph - N/A   Scattered Clouds
12:53 PM 60.1 °F 53.1 °F 78% 30.14 in 10.0 mi North 6.9 mph - N/A   Clear
1:53 PM 63.0 °F 53.1 °F 70% 30.14 in 10.0 mi North 5.8 mph - N/A   Clear
2:53 PM 64.9 °F 53.1 °F 65% 30.13 in 10.0 mi Variable 5.8 mph - N/A   Clear
3:53 PM 64.0 °F 53.1 °F 67% 30.12 in 10.0 mi WNW 10.4 mph - N/A   Clear
4:53 PM 66.0 °F 54.0 °F 65% 30.12 in 10.0 mi Variable 6.9 mph - N/A   Clear
5:53 PM 63.0 °F 53.1 °F 70% 30.11 in 10.0 mi WNW 12.7 mph - N/A   Clear
6:53 PM 60.1 °F 53.1 °F 78% 30.11 in 10.0 mi WNW 9.2 mph - N/A   Clear
7:53 PM 57.0 °F 53.1 °F 87% 30.11 in 10.0 mi WNW 12.7 mph - N/A   Clear
8:49 PM 55.4 °F 53.6 °F 94% 30.12 in 10.0 mi West 6.9 mph - N/A   Scattered Clouds
8:53 PM 55.0 °F 53.1 °F 93% 30.12 in 10.0 mi West 6.9 mph - N/A   Mostly Cloudy
9:53 PM 55.0 °F 53.1 °F 93% 30.13 in 10.0 mi WNW 8.1 mph - N/A   Overcast
10:53 PM 55.0 °F 53.1 °F 93% 30.13 in 10.0 mi WNW 6.9 mph - N/A   Overcast